Location: Grand Lay
(47.3253°N, 0.9468°E)
Time: 22:53:21
(UTC+00:00)

Gblst 52 Del rocket - Pass Details

Date: 18 January 2026
Orbit: 805 x 1364 km, 51.5° (Epoch: 16 February)

Event Time Altitude Azimuth Distance (km) Brightness Sun altitude
Exits shadow 05:04:19 69° 311° (NW) 862 4.0 -25.4°
Maximum altitude 05:05:00 83° 22° (NNE) 816 4.0 -25.2°
Drops below altitude 10° 05:10:32 10° 111° (ESE) 2,408 7.5 -24.3°
Sets 05:13:02 0° 112° (ESE) 3,373 8.6 -23.9°
